GW3137 Weather Reports


Display with metric or nautical units.
time (UTC)temp
F
wind
direction
speed
MPH
gust
MPH
rain 1hr
in
rain 24hr
in
rain mn
in
humidity
%
barometer
mb
20260506080704 57 222 2.0 5.0 0.00 0.00 0.00 82 1017.1
20260506080205 57 190 3.0 6.0 0.00 0.00 0.00 82 1017.1
20260506073205 57 161 2.0 6.0 0.00 0.00 0.00 82 1016.9
20260506070703 57 176 1.0 5.0 0.00 0.00 0.00 82 1016.7
20260506070205 57 170 1.0 5.0 0.00 0.00 0.00 82 1016.7
20260506060704 59 226 2.0 5.0 0.00 0.00 0.00 80 1016.0
20260506060203 59 212 1.0 6.0 0.00 0.00 0.00 79 1016.0
20260506050703 61 196 1.0 3.0 0.00 0.00 0.00 78 1015.7
20260506050204 61 198 1.0 3.0 0.00 0.00 0.00 78 1015.6
20260506043704 61 199 1.0 2.0 0.00 0.00 0.00 77 1015.5
20260506043203 61 199 1.0 3.0 0.00 0.00 0.00 77 1015.5
20260506040703 62 199 1.0 3.0 0.00 0.00 0.00 76 1015.4
20260506040204 62 199 1.0 3.0 0.00 0.00 0.00 76 1015.4
20260506033704 63 231 0.0 0.0 0.00 0.00 0.00 74 1015.2
20260506033204 63 231 0.0 5.0 0.00 0.00 0.00 73 1015.1
20260506030704 64 138 1.0 3.0 0.00 0.00 0.00 70 1014.9
20260506030205 64 163 2.0 6.0 0.00 0.00 0.00 70 1014.9
20260506023703 66 211 2.0 3.0 0.00 0.00 0.00 68 1014.8
20260506020704 67 216 2.0 7.0 0.00 0.00 0.00 67 1014.9
20260506020204 67 258 3.0 8.0 0.00 0.00 0.00 65 1014.9
20260506013704 68 182 2.0 5.0 0.00 0.00 0.00 63 1014.7
20260506013205 69 251 2.0 9.0 0.00 0.00 0.00 63 1014.7
20260506003704 68 203 3.0 7.0 0.00 0.00 0.00 64 1014.9
20260506003204 68 276 2.0 8.0 0.00 0.00 0.00 64 1014.9
20260506000205 67 291 2.0 7.0 0.00 0.00 0.00 64 1015.2
20260505233704 66 173 1.0 3.0 0.00 0.00 0.00 66 1015.5
20260505233204 67 271 1.0 6.0 0.00 0.00 0.00 66 1015.5
20260505230704 64 291 3.0 7.0 0.00 0.00 0.00 70 1015.5
20260505230204 64 234 3.0 7.0 0.00 0.00 0.00 69 1015.6
20260505223704 63 170 2.0 6.0 0.00 0.00 0.00 71 1015.8
20260505223204 63 200 2.0 8.0 0.00 0.00 0.00 71 1015.9
20260505220704 63 149 2.0 7.0 0.00 0.00 0.00 71 1016.1
20260505220203 63 213 1.0 7.0 0.00 0.00 0.00 73 1016.1
20260505213704 62 174 2.0 5.0 0.00 0.00 0.00 73 1016.3
20260505213205 62 274 2.0 7.0 0.00 0.00 0.00 73 1016.2
20260505210703 61 257 1.0 3.0 0.00 0.00 0.00 74 1016.2
20260505210204 61 132 3.0 9.0 0.00 0.00 0.00 74 1016.2
20260505203705 61 159 2.0 6.0 0.00 0.00 0.00 75 1016.4
20260505203204 61 263 1.0 10.0 0.00 0.00 0.00 75 1016.3
20260505200704 60 239 3.0 7.0 0.00 0.00 0.00 77 1016.3
20260505200204 60 227 2.0 7.0 0.00 0.00 0.00 77 1016.3
20260505193704 60 242 2.0 5.0 0.00 0.00 0.00 78 1016.3
20260505193204 59 244 4.0 12.0 0.00 0.00 0.00 78 1016.3
20260505190704 59 207 2.0 5.0 0.00 0.00 0.00 78 1016.3
20260505183704 59 266 2.0 5.0 0.00 0.00 0.00 79 1016.2
20260505183204 59 196 2.0 6.0 0.00 0.00 0.00 79 1016.2
20260505180204 58 239 1.0 7.0 0.00 0.00 0.00 80 1016.1
20260505173705 58 217 2.0 3.0 0.00 0.00 0.00 80 1016.1
20260505173204 58 245 2.0 6.0 0.00 0.00 0.00 80 1016.0
20260505170704 58 182 3.0 8.0 0.00 0.00 0.00 80 1015.9
20260505170204 58 125 3.0 7.0 0.00 0.00 0.00 79 1015.9
20260505163704 58 198 2.0 6.0 0.00 0.00 0.00 81 1015.8
20260505163204 58 148 2.0 7.0 0.00 0.00 0.00 81 1015.8
20260505160203 57 103 2.0 10.0 0.00 0.00 0.00 81 1015.5
20260505153204 57 157 2.0 8.0 0.00 0.00 0.00 82 1015.6
20260505150203 57 179 1.0 6.0 0.00 0.00 0.00 82 1015.4
20260505130204 57 162 2.0 8.0 0.00 0.00 0.00 83 1014.2
20260505123703 57 175 3.0 8.0 0.00 0.00 0.00 83 1014.0
20260505120704 56 187 3.0 7.0 0.00 0.00 0.00 83 1013.9
20260505120204 56 158 3.0 9.0 0.00 0.00 0.00 83 1013.9
20260505113704 56 163 4.0 9.0 0.00 0.00 0.00 83 1013.9
20260505113204 56 161 2.0 9.0 0.00 0.00 0.00 83 1013.8
20260505110704 56 212 2.0 8.0 0.00 0.00 0.00 84 1013.7
20260505110203 56 163 4.0 7.0 0.00 0.00 0.00 84 1013.7
20260505100703 56 202 3.0 7.0 0.00 0.00 0.00 84 1013.3
20260505100204 56 193 2.0 9.0 0.00 0.00 0.00 84 1013.3
20260505093704 57 225 1.0 5.0 0.00 0.00 0.00 84 1013.1
20260505090704 56 167 2.0 3.0 0.00 0.00 0.00 84 1012.9
20260505090204 56 182 2.0 8.0 0.00 0.00 0.00 84 1012.9
20260505083703 56 175 2.0 3.0 0.00 0.00 0.00 84 1012.8
20260505083204 56 174 2.0 9.0 0.00 0.00 0.00 84 1012.8